This is the latest recevied weather packets stored in our database for station/object HECA. If no packets are shown the sender has not sent any weather packets the latest 10 day(s).
| Time | Temp. | Humidity | Pressure | Rain* | Wind** | Luminosity | Snow |
|---|---|---|---|---|---|---|---|
| 1787751203 | 35.56° C | 39% | 1009 hPa | - | - | - | - |
| 1787750603 | 36.67° C | 32% | 1009 hPa | - | - | - | - |
| 1787749998 | 36.67° C | 32% | 1009 hPa | - | - | - | - |
| 1787749402 | 36.67° C | 29% | 1010 hPa | - | - | - | - |
| 1787748800 | 36.67° C | 29% | 1010 hPa | - | - | - | - |
| 1787748201 | 36.67° C | 29% | 1010 hPa | - | - | - | - |
| 1787747601 | 35.56° C | 32% | 1009 hPa | - | - | - | - |
| 1787747003 | 31.67° C | 40% | 1009 hPa | - | - | - | - |
| 1787746405 | 31.67° C | 40% | 1009 hPa | - | - | - | - |
| 1787745802 | 31.67° C | 40% | 1009 hPa | - | - | - | - |
| 1787745203 | 31.67° C | 40% | 1009 hPa | - | - | - | - |
| 1787744603 | 35.56° C | 28% | 1010 hPa | - | - | - | - |
| 1787744001 | 35.56° C | 28% | 1010 hPa | - | - | - | - |
| 1787743402 | 35° C | 36% | 1010 hPa | - | - | - | - |
| 1787742802 | 35° C | 36% | 1010 hPa | - | - | - | - |
| 1787742202 | 35° C | 36% | 1010 hPa | - | - | - | - |
| 1787741602 | 35° C | 36% | 1011 hPa | - | - | - | - |
| 1787741001 | 35° C | 36% | 1011 hPa | - | - | - | - |
| 1787740402 | 35° C | 36% | 1011 hPa | - | - | - | - |
| 1787739800 | 33.89° C | 41% | 1011 hPa | - | - | - | - |
| 1787739203 | 33.89° C | 41% | 1011 hPa | - | - | - | - |
| 1787738603 | 33.89° C | 41% | 1011 hPa | - | - | - | - |
| 1787738001 | 32.78° C | 43% | 1011 hPa | - | - | - | - |
| 1787737403 | 32.78° C | 43% | 1011 hPa | - | - | - | - |
| 1787736801 | 32.78° C | 43% | 1011 hPa | - | - | - | - |
* Rain since midnight (hover to see other rain measurements)
** Current wind speed in m/s (hover to see current wind gust speed)